sat.trackr.live / text

‹ back to catalog

STARLINK-34160

NORAD 64119 · 2025-110Z

PAYLOAD ACTIVE UNKNOWN

§ Identity

Operator
Country
US
Launch date
2025-05-23
Launch site
AFWTR
Launch vehicle
Mass (kg)
RCS (m²)

Purposes: comms

External: N2YO · Heavens-Above · Gunter

§ Orbital elements

Epoch: 2026-05-25T01:13:29.015328Z

Period
93.37 min
Inclination
53.1586°
Eccentricity
0.0000857
Mean motion
15.42182760 rev/d
Perigee alt
439.1 km
Apogee alt
440.3 km
Semi-major
6,817.8 km
B*
6.4031e-4
RAAN
29.2361°
Arg perigee
122.8903°
Mean anomaly
237.2186°
Rev number
5,761

§ Raw data

STARLINK-341601 64119U 25110Z   26145.05103027  .00027573  00000+0  64031-3 0  99962 64119  53.1586  29.2361 0000857 122.8903 237.2186 15.42182760 57613

JSON: /api/v1/satellites/64119 · /tle

For live sub-satellite position, see the globe view (requires WebGL).

§ Visibility from observer

Set your observer location to see the next 7 days of passes ≥ 10°. The values pass through the URL so the page stays shareable.

No JS? Fill the form by hand. The geolocation button needs JavaScript.